{"data":{"norad_id":54166,"epoch":"2026-05-24T22:01:48.442656Z","epoch_age_seconds":85223,"freshness":"FRESH","line1":"1 54166U 22141K   26144.91792179  .00000760  00000+0  65844-4 0  9997","line2":"2 54166  53.2140  22.0475 0001351  91.0787 269.0360 15.08839584197364","mean_motion":15.08839584,"eccentricity":0.0001351,"inclination_deg":53.214,"raan_deg":22.0475,"arg_perigee_deg":91.0787,"mean_anomaly_deg":269.036,"bstar":6.5844e-5,"rev_number":19736,"period_min":95.437580990717,"perigee_km":538.81005469764,"apogee_km":540.67926632231,"semimajor_km":6917.88166051,"source":"CELESTRAK","updated_at":"2026-05-25T13:38:17.661042Z"}}